Theta_e
347 351 361 359 359 359 359 359 360 361 362 361 362 359 359 362 362 361 360 358 358 361 361 362 363 363 362 364 365 365 363 364 366 364 361 361 359 360 363 359 359 354 359
349 354 362 361 360 360 362 361 362 362 362 362 361 360 362 362 359 360 359 357 359 357 360 360 361 362 362 363 364 364 363 364 364 364 362 362 361 360 361 359 359 357 359
348 353 358 364 362 361 362 360 361 362 362 362 361 360 362 360 359 360 360 357 358 360 359 360 360 361 362 362 363 363 360 360 362 363 361 354 355 361 360 359 360 360 357
351 353 356 363 363 361 361 361 361 362 363 362 360 362 361 359 360 360 359 360 358 358 360 359 359 361 361 361 361 361 360 360 361 364 351 350 353 360 359 357 357 358 357
350 353 356 363 364 361 361 361 362 362 362 362 361 361 361 359 360 360 359 360 360 358 359 360 359 359 360 358 359 360 360 362 362 356 349 348 350 357 360 358 359 356 357
351 354 361 365 363 364 363 364 363 363 363 362 362 362 361 362 360 359 360 360 360 358 359 359 358 359 357 357 356 355 357 359 360 353 353 355 351 359 359 357 360 359 358
350 355 359 366 365 365 364 363 363 363 363 362 362 362 359 360 360 360 361 360 359 358 358 357 357 357 356 357 356 357 361 361 351 350 350 352 354 361 359 358 359 356 351
350 355 357 363 365 365 363 363 364 363 362 362 362 362 362 360 360 360 359 360 359 358 358 358 358 357 356 357 356 357 360 362 354 351 351 353 359 361 358 357 359 353 356
352 352 356 357 361 364 364 363 363 363 362 363 363 364 362 361 361 361 361 360 359 358 357 356 356 357 356 356 357 358 361 359 350 351 352 353 360 360 359 356 354 357 357
349 352 354 355 356 355 356 363 363 363 363 363 363 361 361 362 360 359 362 361 359 358 357 355 354 356 357 358 358 360 360 358 350 351 352 354 360 359 356 358 359 357 358
347 351 354 352 353 353 356 359 362 363 363 363 361 360 360 354 352 354 361 362 358 358 357 357 358 358 357 356 358 358 355 342 350 350 352 358 361 359 359 359 358 355 353
343 348 352 348 350 353 356 355 355 357 357 355 355 355 356 351 351 353 358 361 359 358 357 358 357 352 352 347 349 353 351 349 349 350 353 360 360 358 358 357 355 355 356
343 346 346 347 350 350 351 354 355 354 353 354 354 352 353 352 349 349 349 352 351 357 352 351 351 347 346 345 347 349 352 347 351 352 357 360 360 358 358 357 356 357 355
341 341 345 346 346 347 352 354 354 352 355 351 351 350 351 345 342 346 349 349 349 346 346 346 349 348 345 349 348 349 347 347 348 351 356 361 360 359 358 357 356 355 354
340 346 347 351 347 348 350 352 349 350 353 348 351 350 349 349 347 348 349 348 347 344 343 342 343 348 348 347 347 347 347 346 346 351 351 360 360 360 357 356 356 356 356
345 344 345 346 346 351 349 350 351 348 351 353 351 350 348 352 350 347 346 348 347 346 347 346 346 346 343 347 344 343 343 344 347 350 351 353 361 361 359 357 356 356 356
344 344 346 349 349 349 352 350 349 342 348 352 355 351 348 349 352 352 348 346 348 343 346 347 346 346 344 347 343 345 345 344 345 348 348 348 354 362 359 357 358 356 354
343 342 343 349 350 347 351 350 348 346 341 351 355 355 353 354 352 350 351 348 348 348 349 346 345 345 342 342 345 343 344 344 343 345 346 347 348 349 357 358 358 357 354
343 343 341 342 348 346 350 348 350 346 350 354 352 353 356 355 347 350 350 350 353 350 345 346 343 339 342 340 340 342 343 343 347 348 346 345 345 346 347 357 358 358 355
344 342 342 343 348 348 347 347 349 352 351 355 353 354 355 357 355 351 349 352 354 350 343 343 343 342 344 340 338 342 341 342 343 344 346 350 347 346 346 347 351 353 360
343 342 342 342 348 351 348 344 344 344 344 349 353 357 356 357 355 350 350 354 352 348 349 348 348 344 344 341 335 336 338 340 340 341 341 345 346 347 348 347 349 351 353
339 343 342 345 347 350 348 347 345 346 347 349 353 356 357 354 356 353 352 352 352 349 349 348 341 337 342 339 335 334 327 332 337 342 341 343 341 348 350 350 351 350 346
338 341 344 347 347 348 346 347 348 350 345 344 348 354 355 356 357 354 353 355 353 353 346 347 342 342 336 336 338 335 328 326 330 334 331 337 335 342 345 344 349 349 348
338 341 346 349 347 346 348 343 343 343 341 346 349 351 351 356 357 354 357 354 353 354 350 347 351 349 344 337 342 338 338 336 324 323 334 340 336 338 339 341 342 346 345
340 340 344 349 347 345 347 343 344 342 344 345 348 352 350 354 357 357 358 354 352 353 352 351 350 349 350 344 332 335 334 335 336 332 325 331 338 338 339 341 343 345 347
341 340 341 349 345 346 345 348 343 341 343 345 346 349 350 353 356 357 357 355 353 353 354 351 352 351 350 351 348 341 333 335 335 331 326 327 333 335 341 342 341 345 347
Wind_Speed
8 9 11 9 9 7 8 9 8 7 12 13 13 12 12 12 14 12 12 12 10 10 11 11 13 14 14 14 14 15 15 15 16 18 17 17 16 14 18 19 17 14 18
13 11 12 11 10 9 10 11 9 11 13 12 12 11 11 13 13 11 12 11 11 10 10 9 11 13 13 11 13 13 14 14 15 17 18 19 19 19 19 19 17 14 17
15 11 11 12 12 11 12 11 11 12 13 11 10 10 12 12 11 12 11 12 11 11 11 10 12 10 12 11 11 11 12 13 15 16 19 8 10 18 18 18 18 19 17
15 11 11 12 12 14 13 12 11 11 11 10 10 11 11 12 11 10 11 12 12 11 12 11 12 11 10 9 10 9 9 9 11 16 7 8 11 17 18 17 17 17 17
15 12 12 15 13 14 13 12 12 12 11 10 10 11 11 11 10 11 11 11 13 11 11 12 12 10 9 8 9 8 9 7 13 14 8 8 6 12 16 17 16 17 16
16 13 14 15 14 14 13 13 12 13 12 11 11 11 12 11 11 11 11 11 11 11 11 11 11 10 7 9 9 7 5 4 16 11 10 11 6 16 17 17 16 16 17
15 12 11 15 15 15 14 14 13 13 12 12 11 11 11 10 10 10 11 12 11 11 10 10 9 8 5 9 7 7 14 14 9 9 9 7 8 15 16 17 15 16 15
16 12 10 14 14 15 14 13 14 14 12 12 11 11 10 10 10 10 9 10 11 11 10 10 8 6 4 7 5 6 8 14 12 11 7 5 11 14 15 16 15 15 14
18 12 9 8 12 14 14 13 14 13 12 12 11 11 11 10 10 9 10 9 10 10 9 7 5 5 3 3 7 6 8 13 9 7 9 4 11 15 15 15 14 14 13
17 13 10 7 7 6 6 13 13 13 12 12 10 10 9 9 9 9 7 9 10 9 7 4 2 3 2 4 5 7 10 11 8 9 5 4 12 14 14 13 14 13 12
14 14 12 9 7 6 6 8 11 13 12 11 8 8 6 3 5 7 9 9 9 8 7 6 5 3 5 8 11 7 13 2 3 6 3 10 11 14 14 13 14 12 12
17 16 14 12 9 9 8 6 6 6 4 5 5 6 3 4 4 8 8 10 11 7 5 6 7 4 4 5 4 9 2 4 3 5 3 9 12 14 13 12 12 11 11
20 15 16 14 13 9 8 5 3 3 3 4 6 4 3 3 3 4 3 2 3 6 3 8 5 4 5 6 4 5 3 4 4 4 8 12 12 12 13 11 12 10 10
18 17 15 15 12 8 7 6 6 5 4 3 5 6 4 1 3 4 3 3 4 2 3 4 3 5 5 2 3 3 5 5 4 3 8 12 12 12 12 11 11 10 9
12 18 16 11 10 8 7 5 5 4 4 5 5 6 4 4 2 4 3 4 3 3 1 4 2 2 6 6 4 5 10 10 8 3 3 13 11 11 11 11 10 9 9
18 18 10 12 9 7 6 5 5 5 5 4 4 5 4 2 4 5 4 5 4 6 5 3 4 6 4 4 4 6 8 8 9 6 3 6 11 11 10 11 9 9 9
16 15 13 11 9 7 5 6 7 4 5 4 7 7 8 4 5 3 4 4 5 5 4 5 8 5 3 2 5 4 6 8 9 9 6 4 6 11 12 11 10 9 8
18 15 13 11 8 8 5 5 4 3 4 4 5 5 6 7 5 5 3 3 4 5 4 2 1 3 3 3 1 1 5 5 8 8 6 6 4 5 8 10 10 9 10
18 15 12 11 9 8 6 3 5 6 5 3 4 5 6 7 6 4 4 2 5 5 5 5 2 2 2 1 2 1 3 4 7 8 9 7 7 4 4 10 11 10 11
17 14 12 12 10 8 5 3 3 4 5 5 5 5 7 5 6 3 2 1 3 4 2 3 2 2 0 2 1 4 4 3 3 4 5 8 7 8 6 6 5 5 11
17 15 13 13 11 9 3 3 2 4 3 2 3 7 7 6 6 4 1 3 4 4 4 4 2 1 2 2 2 2 2 3 3 5 4 4 5 9 6 6 4 4 6
19 15 13 15 11 9 6 3 3 3 3 5 4 5 5 7 7 6 5 2 4 3 5 3 4 0 1 0 3 3 2 4 2 6 4 5 7 6 7 7 6 7 5
20 16 14 15 12 9 11 4 2 1 2 3 3 4 5 7 7 7 5 3 4 4 3 3 4 5 2 1 3 4 2 2 1 2 1 3 5 5 7 6 9 8 6
20 18 15 16 15 10 11 8 5 4 4 4 8 4 5 7 7 7 6 5 4 2 3 3 2 2 3 2 1 2 2 3 3 2 2 3 2 5 7 4 6 6 7
20 19 16 17 16 15 10 10 7 5 4 3 5 8 6 5 8 7 7 6 5 3 4 4 1 2 2 2 1 1 1 0 1 3 2 3 3 3 4 5 6 6 6
19 19 18 17 18 14 12 9 10 9 7 4 6 6 6 4 4 6 6 6 5 4 4 4 3 3 1 0 1 1 2 3 2 2 2 3 4 5 5 5 5 5 6
Wind_Direction
158 158 153 148 148 152 136 119 112 97 117 110 104 99 97 98 92 92 95 95 98 96 93 93 91 90 90 88 91 94 95 98 100 93 91 86 85 103 96 92 89 88 92
134 143 151 150 149 143 127 130 121 102 112 112 109 106 109 100 96 109 103 100 105 103 98 102 99 97 96 97 98 99 105 104 104 100 95 93 92 95 91 94 92 93 94
130 137 151 143 142 134 129 131 121 114 116 114 111 110 102 99 102 98 101 98 97 101 109 109 103 102 102 103 106 113 114 117 121 110 103 93 91 95 96 95 96 95 90
129 142 135 141 140 134 134 134 127 121 119 119 123 110 109 106 106 106 92 109 100 96 104 102 110 102 105 102 103 110 110 122 120 121 102 89 94 97 98 96 96 94 91
136 132 143 149 140 140 143 141 140 137 132 129 121 118 118 121 107 110 104 93 98 98 109 106 101 106 102 93 84 93 91 66 94 98 95 91 84 96 103 97 91 96 96
124 130 145 149 143 144 145 137 131 128 124 125 121 123 124 117 113 105 105 102 98 102 103 108 105 109 107 83 82 62 16 96 81 90 89 90 91 104 98 97 99 96 90
121 129 139 142 146 139 133 130 132 129 130 128 126 135 127 125 111 110 110 107 108 105 105 113 116 114 105 83 79 52 57 103 95 87 85 83 96 102 98 96 95 94 97
128 129 139 138 134 132 133 135 127 126 129 134 132 139 131 129 124 122 115 114 108 102 97 110 120 132 119 94 82 69 72 104 101 92 88 88 101 103 104 99 101 101 101
127 130 128 134 137 137 134 134 129 128 131 134 142 145 146 135 131 124 117 107 109 108 105 107 122 126 102 137 81 71 59 99 96 107 103 91 110 105 107 109 109 103 100
128 134 136 135 127 119 146 138 135 135 140 143 153 154 146 136 126 114 110 122 114 107 96 91 28 19 27 30 75 67 83 86 94 100 99 100 112 113 114 109 107 110 110
136 140 145 145 143 143 131 145 143 143 151 146 155 153 157 141 138 131 120 120 114 114 121 98 41 48 98 55 30 69 116 111 88 103 106 130 126 114 115 114 110 108 107
147 150 154 155 155 153 152 149 146 154 139 165 161 176 178 147 162 134 131 130 126 122 114 87 79 343 359 50 57 21 155 160 129 104 118 134 122 123 119 118 113 114 109
158 156 159 162 159 170 150 162 159 161 161 169 153 177 163 129 88 105 115 96 96 95 51 31 348 345 347 65 23 13 334 179 125 138 140 132 129 126 128 127 123 120 120
160 157 154 159 159 171 149 174 170 167 162 185 169 156 145 231 125 96 88 82 93 134 81 87 27 345 332 86 176 219 198 136 125 134 143 137 131 143 134 136 134 132 132
138 142 154 145 153 163 147 175 171 154 157 185 128 125 121 128 187 103 161 130 141 102 180 180 171 265 257 255 168 246 138 138 131 136 133 139 144 147 147 145 143 147 137
139 147 136 136 153 132 147 138 124 130 137 135 118 133 130 237 177 148 148 151 149 142 203 216 186 199 246 278 185 186 135 139 141 141 145 152 156 156 160 160 155 151 153
151 147 138 137 147 133 113 122 134 146 120 119 135 146 164 201 175 151 170 115 160 164 188 190 195 179 182 232 235 129 130 143 142 153 158 165 172 173 177 171 169 171 169
144 148 144 142 139 136 141 132 158 156 121 158 147 146 151 108 90 83 162 162 147 144 164 142 108 93 150 179 314 159 108 161 155 162 162 171 178 182 189 188 187 188 189
146 150 150 142 143 144 162 163 107 175 146 183 156 145 146 121 142 136 126 153 194 160 176 139 161 174 144 117 142 118 154 159 167 171 169 177 178 190 197 201 198 200 207
148 156 137 150 148 147 159 161 112 159 143 164 162 152 144 147 139 123 93 12 63 112 95 95 124 201 307 181 155 146 193 209 175 169 184 182 179 182 194 189 197 209 214
151 158 145 151 159 146 155 154 133 165 157 147 140 158 158 149 150 145 155 171 126 141 170 171 108 213 284 181 85 81 297 211 220 194 186 216 180 186 191 194 184 201 212
160 159 153 156 160 155 156 165 159 177 159 177 164 171 174 150 165 158 162 172 149 143 107 110 113 300 31 90 119 103 40 354 291 255 202 193 186 178 194 200 193 202 197
165 163 158 156 163 157 169 154 171 168 70 106 169 180 205 153 163 149 172 153 137 132 150 150 157 133 163 256 159 138 81 207 14 339 247 202 158 162 204 199 200 196 189
170 168 155 158 167 170 168 176 165 177 159 178 175 183 182 166 155 159 166 162 139 141 146 195 161 192 152 207 301 224 139 147 149 335 335 251 225 179 181 197 185 194 188
169 173 166 159 170 177 172 176 173 183 179 179 160 170 178 186 163 170 167 161 151 131 173 166 262 127 106 144 202 237 251 118 189 127 236 294 323 267 201 192 203 191 202
169 171 174 164 175 176 180 170 180 184 197 181 177 163 175 183 169 166 168 159 157 163 166 175 169 128 165 93 47 80 174 157 209 117 147 252 215 254 215 215 195 200 206